Time,TemperatureF,DewpointF,PressureIn,WindDirection,WindDirectionDegrees,WindSpeedMPH,WindSpeedGustMPH,Humidity,HourlyPrecipIn,Conditions,Clouds,dailyrainin,SolarRadiationWatts/m^2,SoftwareType,DateUTC
2013-03-02 00:11:00,22.4,15.0,30.18,NNE,16,3.0,5.0,73,0.00,,,0.00,0,weatherlink.com 1.10,2013-03-02 05:11:00,
2013-03-02 00:26:00,22.2,14.0,30.18,NNE,22,1.0,4.0,72,0.00,,,0.00,0,weatherlink.com 1.10,2013-03-02 05:26:00,
2013-03-02 00:41:00,22.0,15.0,30.18,ENE,65,1.0,3.0,73,0.00,,,0.00,0,weatherlink.com 1.10,2013-03-02 05:41:00,
2013-03-02 00:56:00,21.7,14.0,30.18,NE,54,0.0,2.0,73,0.00,,,0.00,0,weatherlink.com 1.10,2013-03-02 05:56:00,
2013-03-02 01:11:00,21.4,14.0,30.17,NE,53,0.0,3.0,73,0.00,,,0.00,0,weatherlink.com 1.10,2013-03-02 06:11:00,
2013-03-02 01:26:00,21.2,14.0,30.18,North,10,0.0,4.0,73,0.00,,,0.00,0,weatherlink.com 1.10,2013-03-02 06:26:00,
2013-03-02 01:41:00,21.1,14.0,30.18,North,10,0.0,3.0,73,0.00,,,0.00,0,weatherlink.com 1.10,2013-03-02 06:41:00,
2013-03-02 01:56:00,21.1,14.0,30.18,North,355,1.0,5.0,73,0.00,,,0.00,0,weatherlink.com 1.10,2013-03-02 06:56:00,
2013-03-02 02:11:00,20.9,14.0,30.18,NNE,27,0.0,3.0,73,0.00,,,0.00,0,weatherlink.com 1.10,2013-03-02 07:11:00,
2013-03-02 02:26:00,20.7,13.0,30.18,NNE,29,0.0,2.0,73,0.00,,,0.00,0,weatherlink.com 1.10,2013-03-02 07:26:00,
2013-03-02 02:41:00,20.4,13.0,30.18,NNE,29,0.0,1.0,73,0.00,,,0.00,0,weatherlink.com 1.10,2013-03-02 07:41:00,
2013-03-02 02:56:00,20.0,13.0,30.17,NNE,29,0.0,0.0,73,0.00,,,0.00,0,weatherlink.com 1.10,2013-03-02 07:56:00,
2013-03-02 03:11:00,19.7,13.0,30.17,NNE,29,0.0,0.0,74,0.00,,,0.00,0,weatherlink.com 1.10,2013-03-02 08:11:00,
2013-03-02 03:26:00,19.3,13.0,30.17,NNE,29,0.0,1.0,75,0.00,,,0.00,0,weatherlink.com 1.10,2013-03-02 08:26:00,
2013-03-02 03:41:00,19.0,12.0,30.16,NNE,29,0.0,0.0,75,0.00,,,0.00,0,weatherlink.com 1.10,2013-03-02 08:41:00,
2013-03-02 03:56:00,18.7,12.0,30.16,NNE,29,0.0,0.0,76,0.00,,,0.00,0,weatherlink.com 1.10,2013-03-02 08:56:00,
2013-03-02 04:11:00,18.4,12.0,30.17,NNE,29,0.0,0.0,76,0.00,,,0.00,0,weatherlink.com 1.10,2013-03-02 09:11:00,
2013-03-02 04:26:00,18.2,12.0,30.16,NNE,28,0.0,2.0,76,0.00,,,0.00,0,weatherlink.com 1.10,2013-03-02 09:26:00,
2013-03-02 04:42:00,18.0,12.0,30.16,NNE,28,0.0,1.0,77,0.00,,,0.00,0,weatherlink.com 1.10,2013-03-02 09:42:00,
2013-03-02 04:57:00,17.7,12.0,30.16,NNE,28,0.0,1.0,77,0.00,,,0.00,0,weatherlink.com 1.10,2013-03-02 09:57:00,
2013-03-02 05:12:00,17.5,11.0,30.16,NNE,26,0.0,2.0,77,0.00,,,0.00,0,weatherlink.com 1.10,2013-03-02 10:12:00,
2013-03-02 05:27:00,17.2,11.0,30.16,NNE,26,0.0,2.0,77,0.00,,,0.00,0,weatherlink.com 1.10,2013-03-02 10:27:00,
2013-03-02 05:42:00,17.1,11.0,30.16,NNE,26,0.0,3.0,78,0.00,,,0.00,0,weatherlink.com 1.10,2013-03-02 10:42:00,
2013-03-02 05:57:00,16.9,11.0,30.16,NNE,26,0.0,2.0,78,0.00,,,0.00,0,weatherlink.com 1.10,2013-03-02 10:57:00,
2013-03-02 06:12:00,16.7,11.0,30.16,NNE,26,0.0,2.0,78,0.00,,,0.00,0,weatherlink.com 1.10,2013-03-02 11:12:00,
2013-03-02 06:27:00,16.6,11.0,30.16,NNE,26,0.0,0.0,79,0.00,,,0.00,0,weatherlink.com 1.10,2013-03-02 11:27:00,
2013-03-02 06:42:00,16.4,11.0,30.17,NNE,26,0.0,0.0,79,0.00,,,0.00,0,weatherlink.com 1.10,2013-03-02 11:42:00,
2013-03-02 06:57:00,16.2,11.0,30.17,NNE,26,0.0,1.0,79,0.00,,,0.00,0,weatherlink.com 1.10,2013-03-02 11:57:00,
2013-03-02 07:12:00,16.0,11.0,30.18,NNE,26,3.0,3.0,79,0.00,,,0.00,7,weatherlink.com 1.10,2013-03-02 12:12:00,
2013-03-02 07:27:00,15.9,11.0,30.18,NNE,26,0.0,2.0,80,0.00,,,0.00,12,weatherlink.com 1.10,2013-03-02 12:27:00,
2013-03-02 07:42:00,15.9,11.0,30.18,NNE,26,0.0,2.0,80,0.00,,,0.00,23,weatherlink.com 1.10,2013-03-02 12:42:00,
2013-03-02 07:57:00,16.2,11.0,30.18,North,351,0.0,3.0,80,0.00,,,0.00,49,weatherlink.com 1.10,2013-03-02 12:57:00,
2013-03-02 08:12:00,16.8,12.0,30.18,North,5,0.0,4.0,80,0.00,,,0.00,58,weatherlink.com 1.10,2013-03-02 13:12:00,
2013-03-02 08:27:00,17.8,12.0,30.19,NNE,14,2.0,5.0,79,0.00,,,0.00,148,weatherlink.com 1.10,2013-03-02 13:27:00,
2013-03-02 08:42:00,18.6,13.0,30.19,North,9,0.0,4.0,78,0.00,,,0.00,100,weatherlink.com 1.10,2013-03-02 13:42:00,
2013-03-02 08:57:00,19.1,13.0,30.19,NNE,15,2.0,6.0,77,0.00,,,0.00,195,weatherlink.com 1.10,2013-03-02 13:57:00,
2013-03-02 09:12:00,19.5,13.0,30.19,NNE,13,2.0,5.0,76,0.00,,,0.00,290,weatherlink.com 1.10,2013-03-02 14:12:00,
2013-03-02 09:27:00,20.0,13.0,30.19,North,355,1.0,6.0,75,0.00,,,0.00,357,weatherlink.com 1.10,2013-03-02 14:27:00,
2013-03-02 09:42:00,20.8,14.0,30.19,North,5,2.0,7.0,74,0.00,,,0.00,415,weatherlink.com 1.10,2013-03-02 14:42:00,
2013-03-02 09:57:00,21.8,14.0,30.18,North,5,0.0,8.0,73,0.00,,,0.00,457,weatherlink.com 1.10,2013-03-02 14:57:00,
2013-03-02 10:12:00,22.7,15.0,30.18,North,10,2.0,7.0,71,0.00,,,0.00,497,weatherlink.com 1.10,2013-03-02 15:12:00,
2013-03-02 10:27:00,23.4,15.0,30.18,NNW,342,1.0,5.0,69,0.00,,,0.00,148,weatherlink.com 1.10,2013-03-02 15:27:00,
2013-03-02 10:42:00,23.2,14.0,30.18,North,5,3.0,8.0,69,0.00,,,0.00,613,weatherlink.com 1.10,2013-03-02 15:42:00,
2013-03-02 10:57:00,23.9,15.0,30.17,NNE,14,3.0,6.0,68,0.00,,,0.00,717,weatherlink.com 1.10,2013-03-02 15:57:00,
2013-03-02 11:12:00,23.6,14.0,30.17,NNE,26,3.0,4.0,67,0.00,,,0.00,394,weatherlink.com 1.10,2013-03-02 16:12:00,
2013-03-02 11:27:00,23.4,15.0,30.17,WNW,289,2.0,5.0,69,0.00,,,0.00,399,weatherlink.com 1.10,2013-03-02 16:27:00,
2013-03-02 11:42:00,23.5,15.0,30.17,ENE,57,0.0,7.0,69,0.00,,,0.00,471,weatherlink.com 1.10,2013-03-02 16:42:00,
2013-03-02 11:57:00,23.4,14.0,30.17,NNW,346,4.0,5.0,68,0.00,,,0.00,487,weatherlink.com 1.10,2013-03-02 16:57:00,
2013-03-02 12:13:00,24.3,15.0,30.17,NNW,329,1.0,6.0,69,0.00,,,0.00,478,weatherlink.com 1.10,2013-03-02 17:13:00,
2013-03-02 12:28:00,24.4,15.0,30.17,NNW,348,2.0,8.0,68,0.00,,,0.00,399,weatherlink.com 1.10,2013-03-02 17:28:00,
2013-03-02 12:43:00,25.1,16.0,30.16,North,355,3.0,4.0,67,0.00,,,0.00,371,weatherlink.com 1.10,2013-03-02 17:43:00,
2013-03-02 12:58:00,25.4,16.0,30.16,NE,44,2.0,9.0,67,0.00,,,0.00,448,weatherlink.com 1.10,2013-03-02 17:58:00,
2013-03-02 13:13:00,26.4,16.0,30.15,NNW,345,1.0,6.0,66,0.00,,,0.00,383,weatherlink.com 1.10,2013-03-02 18:13:00,
2013-03-02 13:28:00,25.8,15.0,30.15,East,92,0.0,6.0,65,0.00,,,0.00,427,weatherlink.com 1.10,2013-03-02 18:28:00,
2013-03-02 13:43:00,26.2,15.0,30.15,North,355,4.0,5.0,64,0.00,,,0.00,413,weatherlink.com 1.10,2013-03-02 18:43:00,
2013-03-02 13:58:00,27.2,16.0,30.14,NNW,333,2.0,7.0,63,0.00,,,0.00,352,weatherlink.com 1.10,2013-03-02 18:58:00,
2013-03-02 14:13:00,27.2,16.0,30.14,NE,39,3.0,6.0,63,0.00,,,0.00,378,weatherlink.com 1.10,2013-03-02 19:13:00,
2013-03-02 14:28:00,27.2,16.0,30.14,NNW,346,1.0,4.0,63,0.00,,,0.00,448,weatherlink.com 1.10,2013-03-02 19:28:00,
2013-03-02 14:43:00,27.2,15.0,30.13,NE,48,0.0,5.0,61,0.00,,,0.00,269,weatherlink.com 1.10,2013-03-02 19:43:00,
2013-03-02 14:58:00,27.9,16.0,30.13,WNW,291,0.0,7.0,62,0.00,,,0.00,461,weatherlink.com 1.10,2013-03-02 19:58:00,
2013-03-02 15:13:00,27.9,16.0,30.13,NW,313,4.0,7.0,61,0.00,,,0.00,287,weatherlink.com 1.10,2013-03-02 20:13:00,
2013-03-02 15:28:00,27.9,16.0,30.13,North,5,0.0,4.0,62,0.00,,,0.00,279,weatherlink.com 1.10,2013-03-02 20:28:00,
2013-03-02 15:43:00,28.7,17.0,30.13,WNW,292,4.0,4.0,61,0.00,,,0.00,424,weatherlink.com 1.10,2013-03-02 20:43:00,
2013-03-02 15:58:00,29.4,17.0,30.13,WNW,286,6.0,9.0,60,0.00,,,0.00,619,weatherlink.com 1.10,2013-03-02 20:58:00,
2013-03-02 16:13:00,29.3,17.0,30.12,WNW,284,2.0,7.0,60,0.00,,,0.00,336,weatherlink.com 1.10,2013-03-02 21:13:00,
2013-03-02 16:28:00,28.9,17.0,30.12,West,263,0.0,6.0,61,0.00,,,0.00,230,weatherlink.com 1.10,2013-03-02 21:28:00,
2013-03-02 16:43:00,29.0,17.0,30.12,WNW,288,3.0,4.0,60,0.00,,,0.00,443,weatherlink.com 1.10,2013-03-02 21:43:00,
2013-03-02 16:58:00,28.8,16.0,30.12,North,355,1.0,4.0,58,0.00,,,0.00,246,weatherlink.com 1.10,2013-03-02 21:58:00,
2013-03-02 17:13:00,28.9,16.0,30.13,NNW,328,0.0,3.0,59,0.00,,,0.00,79,weatherlink.com 1.10,2013-03-02 22:13:00,
2013-03-02 17:28:00,29.1,17.0,30.12,WNW,294,2.0,3.0,60,0.00,,,0.00,97,weatherlink.com 1.10,2013-03-02 22:28:00,
2013-03-02 17:43:00,29.2,16.0,30.13,WNW,282,0.0,5.0,59,0.00,,,0.00,97,weatherlink.com 1.10,2013-03-02 22:43:00,
2013-03-02 17:58:00,29.4,17.0,30.13,WNW,289,0.0,6.0,60,0.00,,,0.00,58,weatherlink.com 1.10,2013-03-02 22:58:00,
2013-03-02 18:13:00,29.2,17.0,30.13,WNW,283,0.0,4.0,60,0.00,,,0.00,23,weatherlink.com 1.10,2013-03-02 23:13:00,
2013-03-02 18:28:00,28.9,17.0,30.13,NW,309,0.0,2.0,61,0.00,,,0.00,12,weatherlink.com 1.10,2013-03-02 23:28:00,
2013-03-02 18:43:00,28.7,17.0,30.13,NW,306,0.0,2.0,61,0.00,,,0.00,7,weatherlink.com 1.10,2013-03-02 23:43:00,
2013-03-02 18:58:00,28.5,17.0,30.13,NW,306,0.0,0.0,62,0.00,,,0.00,7,weatherlink.com 1.10,2013-03-02 23:58:00,
2013-03-02 19:13:00,28.4,17.0,30.12,NW,306,0.0,0.0,62,0.00,,,0.00,7,weatherlink.com 1.10,2013-03-03 00:13:00,
2013-03-02 19:28:00,28.3,17.0,30.13,East,95,1.0,5.0,63,0.00,,,0.00,7,weatherlink.com 1.10,2013-03-03 00:28:00,
2013-03-02 19:43:00,27.4,17.0,30.13,East,96,2.0,3.0,64,0.00,,,0.00,7,weatherlink.com 1.10,2013-03-03 00:43:00,
2013-03-02 19:58:00,26.7,16.0,30.12,East,101,3.0,3.0,64,0.00,,,0.00,7,weatherlink.com 1.10,2013-03-03 00:58:00,
2013-03-02 20:13:00,26.3,16.0,30.13,ESE,114,1.0,5.0,65,0.00,,,0.00,7,weatherlink.com 1.10,2013-03-03 01:13:00,
2013-03-02 20:28:00,25.7,16.0,30.13,ENE,72,0.0,6.0,66,0.00,,,0.00,5,weatherlink.com 1.10,2013-03-03 01:28:00,
2013-03-02 20:43:00,25.1,16.0,30.13,East,97,0.0,5.0,67,0.00,,,0.00,5,weatherlink.com 1.10,2013-03-03 01:43:00,
2013-03-02 20:58:00,24.5,15.0,30.14,East,98,0.0,2.0,68,0.00,,,0.00,5,weatherlink.com 1.10,2013-03-03 01:58:00,
2013-03-02 21:13:00,24.1,15.0,30.14,East,98,0.0,0.0,68,0.00,,,0.00,5,weatherlink.com 1.10,2013-03-03 02:13:00,
2013-03-02 21:28:00,23.9,15.0,30.15,East,98,0.0,0.0,69,0.00,,,0.00,5,weatherlink.com 1.10,2013-03-03 02:28:00,
2013-03-02 21:43:00,24.0,16.0,30.16,East,98,0.0,0.0,70,0.00,,,0.00,5,weatherlink.com 1.10,2013-03-03 02:43:00,
2013-03-02 21:58:00,24.1,16.0,30.15,East,98,0.0,2.0,70,0.00,,,0.00,5,weatherlink.com 1.10,2013-03-03 02:58:00,
2013-03-02 22:13:00,24.2,16.0,30.15,NE,52,1.0,3.0,70,0.00,,,0.00,5,weatherlink.com 1.10,2013-03-03 03:13:00,
2013-03-02 22:28:00,24.2,15.0,30.14,NE,51,2.0,3.0,69,0.00,,,0.00,5,weatherlink.com 1.10,2013-03-03 03:28:00,
2013-03-02 22:43:00,24.2,15.0,30.14,NE,51,0.0,3.0,69,0.00,,,0.00,5,weatherlink.com 1.10,2013-03-03 03:43:00,
2013-03-02 22:58:00,24.0,15.0,30.14,NW,326,0.0,6.0,69,0.00,,,0.00,5,weatherlink.com 1.10,2013-03-03 03:58:00,
2013-03-02 23:13:00,23.7,15.0,30.14,NE,38,0.0,4.0,69,0.00,,,0.00,5,weatherlink.com 1.10,2013-03-03 04:13:00,
2013-03-02 23:28:00,23.3,15.0,30.15,NNE,23,0.0,3.0,70,0.00,,,0.00,5,weatherlink.com 1.10,2013-03-03 04:28:00,
2013-03-02 23:43:00,23.0,15.0,30.14,NNE,22,0.0,2.0,70,0.00,,,0.00,5,weatherlink.com 1.10,2013-03-03 04:43:00,
2013-03-02 23:58:00,22.7,14.0,30.14,NNE,22,0.0,1.0,70,0.00,,,0.00,5,weatherlink.com 1.10,2013-03-03 04:58:00,